Regional Weather Roundup
Issued by NWS

Home | Current Version | Previous Version | Graphics & Text | Print | Product List | Glossary Off
Versions: 1 2 3 4 5 6 7 8 9 10 11 12 13 14 15 16 17 18 19 20 21 22 23 24 25 26 27 28 29 30 31 32 33 34 35 36 37 38 39 40 41 42 43 44 45 46 47 48 49 50

213
ASUS43 KMKX 091920
RWRWI

WISCONSIN REGIONAL WEATHER ROUNDUP
NATIONAL WEATHER SERVICE MILWAUKEE/SULLIVAN WI
100 PM CST TUE FEB 09 2016

NOTE: "FAIR" INDICATES FEW OR NO CLOUDS BELOW 12,000 FEET WITH NO
SIGNIFICANT WEATHER AND/OR OBSTRUCTIONS TO VISIBILITY.

WIZ001-002-006>008-014>016-023>028-092000-
NORTHWEST WISCONSIN

CITY           SKY/WX    TMP DP  RH WIND       PRES   REMARKS
SUPERIOR ARPT  SUNNY     11  -3  53 N9        30.09F WCI  -1
ASHLAND        LGT SNOW  11   4  73 NW15      30.04F WCI  -5
HAYWARD        CLOUDY     8   0  69 N12G17    30.01S HAZE    WCI  -7
SIREN          SUNNY     13  -3  49 N14       30.05F WCI  -2
CUMBERLAND     SUNNY     10   0  61 N15       30.00F WCI  -6
RICE LAKE      SUNNY     11  -1  57 NW8       30.03F WCI  -1
CHETEK         SUNNY     10  -2  58 NW9       30.01F WCI  -3
LADYSMITH      PTSUNNY   12   1  60 NW13G18   29.98S WCI  -3
EAU CLAIRE     SUNNY     11  -4  51 N8G18     30.01F WCI  -1
MENOMONIE      SUNNY     14  -2  48 NW13G18   30.03F WCI   0
NEW RICHMOND   SUNNY     12  -1  54 NW18G26   30.04F WCI  -5
OSCEOLA        SUNNY     15   0  51 NW13G20   30.09F WCI   1
$$

WIZ003>005-009-010-017-018-092000-
NORTH CENTRAL WISCONSIN

CITY           SKY/WX    TMP DP  RH WIND       PRES   REMARKS
MANITOWISH WTR LGT SNOW  10   4  77 N14G22    29.86S WCI  -6
ARBOR VITAE    LGT SNOW  13   6  74 N21G29    29.85S VSB 1   WCI  -5
WOODRUFF       LGT SNOW  13   6  74 N21G29    29.85S VSB 1   WCI  -5
RHINELANDER    CLOUDY    13   3  64 N17G26    29.82S HAZE    WCI  -4
EAGLE RIVER    CLOUDY    12   3  68 NW23G29   29.82R HAZE    WCI  -7
LAND O LAKES   CLOUDY    11   4  72 N21G28    29.83S HAZE    WCI  -8
PHILLIPS       CLOUDY     9   1  72 NW16G23   29.90S WCI  -9
TOMAHAWK       CLOUDY    13   3  64 N13G24    29.86R HAZE    WCI  -1
MEDFORD        CLOUDY    11   3  70 NW22      29.87S HAZE    WCI  -8
MERRILL        CLOUDY    15   5  63 N17       29.85S WCI  -1
$$

WIZ029-030-035-036-043>047-092000-
CENTRAL WISCONSIN

CITY           SKY/WX    TMP DP  RH WIND       PRES   REMARKS
WAUSAU         LGT SNOW  16   6  65 NW17G28   29.83S WCI   0
MOSINEE        CLOUDY    16   9  73 NW17G23   29.85S WCI   0
MARSHFIELD     CLOUDY    13   3  64 NW25G32   29.87S WCI  -7
STEVENS POINT  CLOUDY    14   4  64 NW14G21   29.85S WCI  -1
WAUPACA        CLOUDY    20   7  56 NW12      29.84S WCI   8
WAUTOMA        CLOUDY    16   4  59 NW16G22   29.87S WCI   1
WISC RAPIDS    CLOUDY    14   3  61 NW22G31   29.89S WCI  -4
CAMP DOUGLAS   PTSUNNY   14   3  62 NW20G26   29.92S WCI  -3
$$

WIZ011>013-019>022-031-037>040-048>050-092000-
NORTHEAST WISCONSIN

CITY           SKY/WX    TMP DP  RH WIND       PRES   REMARKS
ANTIGO         LGT SNOW  13   6  74 N18G25    29.79S WCI  -4
SHAWANO        CLOUDY    21   6  51 N13       29.82S WCI   9
OCONTO         CLOUDY    18   6  58 N14G22    29.81S WCI   4
STURGEON BAY   CLOUDY    18   7  62 NW20G26   29.79S WCI   1
GREEN BAY      MIX PCPN  18   8  65 NW17      29.81S WCI   3
MANITOWOC      CLOUDY    19   8  62 N20       29.80S WCI   3
APPLETON       PTSUNNY   18   7  62 NW14G23   29.80S WCI   4
CLINTONVILLE   CLOUDY    19   7  58 N12       29.83S WCI   7
OSHKOSH        CLOUDY    16   8  71 W13       29.82S WCI   2
$$

WIZ032>034-041-042-053>061-092000-
SOUTHWEST WISCONSIN

CITY           SKY/WX    TMP DP  RH WIND       PRES   REMARKS
LA CROSSE      SUNNY     13   0  56 NW16      30.01F WCI  -3
SPARTA         MOSUNNY   13   3  62 NW17      29.98S WCI  -3
VIROQUA        PTSUNNY   11   1  63 NW17      29.93F WCI  -6
BOSCOBEL       MOSUNNY   15   1  53 NW13G21   29.98F WCI   1
PRAIRIE DU CHI MOSUNNY   15   1  53 NW13G20   30.00F WCI   1
PLATTEVILLE    PTSUNNY   14   6  69 NW15      29.92F WCI  -1
$$

WIZ056-057-062-063-064-067-068-092000-
SOUTH CENTRAL WISCONSIN

CITY           SKY/WX    TMP DP  RH WIND       PRES   REMARKS
REEDSBURG      CLOUDY    13   3  63 NW14      29.91S WCI  -2
BARABOO/DELLS  CLOUDY    14   3  61 NW13G23   29.89S WCI  -1
LONE ROCK      CLOUDY    15   2  56 NW16G22   29.94F WCI  -1
MINERAL POINT  MOSUNNY   16   3  57 NW14G22   29.89F WCI   1
MADISON        CLOUDY    14   3  61 NW14G21   29.87F WCI  -1
MIDDLETON      CLOUDY    16   6  65 NW17G24   29.88S WCI   0
WATERTOWN      CLOUDY    16   6  65 NW16G24   29.85R WCI   0
MONROE         PTSUNNY   18   9  68 NW15      29.86S WCI   3
JANESVILLE     PTSUNNY   18   7  62 N20       29.86F WCI   1
$$

WIZ051-052-058>065-066-070>072-092000-
SOUTHEAST WISCONSIN

CITY           SKY/WX    TMP DP  RH WIND       PRES   REMARKS
MILWAUKEE      PTSUNNY   18   6  59 NW15      29.82S WCI   4
WAUKESHA       CLOUDY    14   7  73 NW17G29   29.82F WCI  -3
MILWAUKEE/TIMM CLOUDY    18   7  62 NW20      29.83S WCI   1
RACINE         CLOUDY    19   6  57 NW13      29.82F WCI   6
BURLINGTON     CLOUDY    15   6  65 NW15      29.83S WCI   0
KENOSHA        CLOUDY    18   8  65 NW12      29.82S WCI   5
FOND DU LAC    CLOUDY    16   7  67 NW16      29.83S WCI   1
SHEBOYGAN      CLOUDY    18   7  62 NW14G28   29.80S WCI   4
WEST BEND      CLOUDY    18   9  68 W13       29.81S WCI   4
JUNEAU         CLOUDY    14   5  66 NW13G22   29.85S WCI   0
$$

LSZ147-162-092000-
LAKE SUPERIOR

STATION/POSITION TIME  TEMP    WIND        PRES    WAVE
                       AIR SEA DIR/SP/G            HT/PER
                 (UTC) (F)     (DEG/KT/KT) (MB)    (FT/S)
DEVILS ISLAND    1900   10     330/ 18/ 21 1018.9F
SAXON HARBOR     1840   11                 1016.6S
$$

LMZ867-665-643>646-092000-
LAKE MICHIGAN

STATION/POSITION TIME  TEMP    WIND        PRES    WAVE
                       AIR SEA DIR/SP/G            HT/PER
                 (UTC) (F)     (DEG/KT/KT) (MB)    (FT/S)
CHAMBERS ISLAND  1800   18     310/ 19/ 24 1008.1F
ALGOMA LAKESHORE 1811          360/ 15/ 22   N/A
KEWAUNEE LAKESHO 1900   18     340/ 15/ 21 1007.9F
SHEBOYGAN LAKESH 1900   18     310/ 18/ 22 1010.5S
PORT WASHINGTON  1800   17     320/  9/ 20 1010.8
MILWAUKEE LAKESH 1910   18     310/ 11/ 13   N/A
KENOSHA   LAKESH 1900   17     320/ 14/ 19 1009.8S
$$

TC  - TEMPERATURE IN CELSIUS
VSB - VISIBILITY IN STATUTE MILES
WCI - WIND CHILL INDEX
HX  - HEAT INDEX





USA.gov is the U.S. government's official web portal to all federal, state and local government web resources and services.